Location: Bats
(43.6587°N, 0.4584°W)
Time: 10:41:09
(UTC+00:00)

YAOGAN 3 - Pass Details

Date: 12 January 2026
Orbit: 596 x 598 km, 97.8° (Epoch: 11 February)

Event Time Altitude Azimuth Distance (km) Brightness Sun altitude
Rises 18:44:09 0° 161° (SSE) 2,832 7.9 -20.7°
Reaches altitude 10° 18:46:19 10° 159° (SSE) 1,934 7.0 -21.0°
Maximum altitude 18:50:30 73° 75° (ENE) 632 4.3 -21.8°
Drops below altitude 10° 18:54:43 10° 351° (N) 1,949 7.1 -22.5°
Sets 18:56:54 0° 350° (N) 2,855 8.0 -22.9°
